(2021 BC) |
Classification: Aten [NEO] SPK-ID: 54106085 |
[ hide orbit diagram ]
For accurate long-term ephemerides, please instead use our Horizons system.This orbit viewer was implemented using two-body methods, and hence should not be used for determining accurate long-term trajectories (over several years or decades) or planetary encounter circumstances.
Orbital Elements at Epoch 2459000.5 (2020-May-31.0) TDB
Reference: JPL 9 (heliocentric ecliptic J2000)
Element | Value | Uncertainty (1-sigma) | Units |
e | .4353744800878916 | 0.00016754 | |
a | .7053986746397353 | 6.6571e-05 | au |
q | .3982860934137727 | 0.00015577 | au |
i | 21.2716010203615 | 0.016237 | deg |
node | 300.5250201933588 | 0.00010734 | deg |
peri | 346.1842237317911 | 0.0012079 | deg |
M | 180.5057026512266 | 0.042861 | deg |
tp | 2459108.394309613680 (2020-Sep-15.89430961) | 0.01049 | TDB |
period | 216.3965765745269 0.59 | 0.030633 8.387e-05 | d yr |
n | 1.663612270113784 | 0.0002355 | deg/d |
Q | 1.012511255865698 | 9.5554e-05 | au |
|
| | Orbit Determination Parameters
Additional Information
|
[ show covariance matrix ]
Physical Parameter Table
Parameter |
Symbol |
Value |
Units |
Sigma |
Reference |
Notes |
absolute magnitude |
H |
24.3 |
|
.38976 |
E2021D54 |
autocmod 2.8 |
|
[ show close-approach data ]
|